Overview Statistics Trail Chart Weather Telemetry Raw packets
 

This is the latest recevied weather packets stored in our database for station/object SR3WXA. If no packets are shown the sender has not sent any weather packets the latest 10 day(s).

<< 109 110 111 112 113 114 115 >>
Time Temp. Humidity Pressure Rain* Wind** Luminosity Snow
1788185672 21.67° C 70% 1012.3 hPa 0 mm - 65 W/m² -
1788185577 21.67° C 70% 1012.3 hPa 0 mm - 65 W/m² -
1788185367 21.67° C 70% 1012.3 hPa 0 mm - 76 W/m² -
1788185277 21.67° C 70% 1012.3 hPa 0 mm - 76 W/m² -
1788184741 21.67° C 69% 1012.2 hPa 0 mm - 114 W/m² -
1788184678 21.67° C 69% 1012.2 hPa 0 mm - 114 W/m² -
1788184444 21.67° C 69% 1012.3 hPa 0 mm - 118 W/m² -
1788184377 21.67° C 69% 1012.3 hPa 0 mm - 118 W/m² -
1788184077 21.67° C 69% 1012.3 hPa 0 mm - 105 W/m² -
1788183871 21.67° C 68% 1012.3 hPa 0 mm - 109 W/m² -
1788183777 21.67° C 68% 1012.3 hPa 0 mm - 109 W/m² -
1788183550 21.67° C 69% 1012.1 hPa 0 mm - 105 W/m² -
1788183477 21.67° C 69% 1012.1 hPa 0 mm - 105 W/m² -
1788183287 21.67° C 69% 1012.2 hPa 0 mm - 130 W/m² -
1788183177 21.67° C 69% 1012.2 hPa 0 mm - 130 W/m² -
1788182956 21.67° C 68% 1012.2 hPa 0 mm - 160 W/m² -
1788182877 21.67° C 68% 1012.2 hPa 0 mm - 160 W/m² -
1788182644 21.67° C 69% 1012.2 hPa 0 mm - 142 W/m² -
1788182578 21.67° C 69% 1012.2 hPa 0 mm - 142 W/m² -
1788182347 21.67° C 68% 1012.1 hPa 0 mm - 156 W/m² -
1788182277 21.67° C 68% 1012.1 hPa 0 mm - 156 W/m² -
1788181561 22.22° C 68% 1012.1 hPa 0 mm - 200 W/m² -
1788181509 22.22° C 68% 1012.1 hPa 0 mm - 200 W/m² -
1788180971 22.22° C 68% 1012.1 hPa 0 mm - 181 W/m² -
1788180925 22.22° C 68% 1012.1 hPa 0 mm - 181 W/m² -

* Rain latest hour (hover to see other rain measurements)
** Current wind speed in m/s (hover to see current wind gust speed)